CAPE
0 0 0 0 0 0 0 0 0 0 0 0 0 0 15 58 59 7 1 226 99 325 726 955 1326 1840 2222 2447 2531 2413 2277 2208 2169 2122 1978 1697 1418 862 601 473 153 10 0 0 0 0 0 0 0
0 0 0 0 0 0 0 0 0 0 0 0 0 0 5 56 0 99 419 174 100 270 548 387 1333 1722 2200 2391 2383 2279 2281 2290 2230 2138 1834 1435 1299 912 433 67 26 0 0 0 0 0 0 0 0
0 0 0 0 0 0 0 0 0 0 0 11 0 0 23 82 0 1 491 130 119 232 277 440 1334 1584 2097 2291 2241 2135 2205 2256 2221 2066 1746 1310 1127 945 551 112 54 2 0 0 0 0 0 0 0
0 0 0 0 0 0 0 0 0 0 0 39 2 22 97 71 0 213 763 145 138 119 283 1236 1279 1312 1810 2187 2138 2023 2090 2181 2167 1979 1647 1258 993 921 518 151 91 22 0 0 0 0 0 0 0
0 0 0 0 0 0 0 0 0 0 0 50 6 3 129 76 33 1201 926 356 113 28 457 1043 1368 1241 1324 1795 1908 1912 1921 1911 1982 1954 1653 1350 1102 773 479 225 54 31 18 4 10 91 98 105 134
0 0 0 0 0 0 0 0 0 0 2 0 0 0 16 41 61 480 756 474 197 50 767 880 1585 1387 1107 1186 1390 1494 1568 1599 1620 1622 1501 1280 966 685 453 276 149 125 130 115 154 162 176 259 352
0 0 0 0 0 0 0 0 0 0 0 0 0 0 1 28 3 140 390 547 369 411 633 602 1070 1335 1462 1164 988 965 1070 1112 1156 1126 1065 971 836 644 458 304 197 192 198 225 297 302 394 482 553
0 0 0 0 0 0 0 0 0 0 0 0 0 0 11 75 1 85 220 289 374 1005 765 638 633 940 979 1005 1210 971 864 826 769 848 857 810 807 595 429 239 223 240 308 381 456 474 587 703 766
0 0 0 0 0 0 0 0 0 0 0 0 0 0 122 109 3 0 8 85 501 1151 810 630 481 517 518 631 954 1189 924 974 870 852 892 613 254 221 117 147 153 315 393 530 618 650 732 892 928
0 0 0 0 0 0 0 0 0 0 0 0 0 0 176 157 15 0 0 0 369 1266 1221 720 504 286 116 254 447 614 465 500 447 351 333 176 16 11 61 91 248 302 471 661 746 805 900 847 536
0 0 0 0 0 0 0 0 0 0 0 0 0 0 23 112 47 0 0 0 13 866 1652 1289 690 359 48 91 189 407 326 258 232 112 53 62 4 1 49 0 44 30 225 113 481 611 696 538 414
0 0 0 0 0 0 0 0 0 0 0 0 0 0 0 0 82 62 12 0 7 164 1379 1582 1038 372 76 40 251 299 161 150 142 133 0 27 0 0 0 0 0 0 42 66 85 213 361 333 266
0 0 0 0 0 0 0 0 0 0 0 0 0 0 0 0 11 94 16 21 0 79 469 673 1251 717 307 214 435 340 237 156 83 119 43 16 1 0 0 0 0 0 6 40 4 58 178 224 293
0 0 0 0 0 0 0 0 0 0 0 0 0 0 0 0 0 27 13 0 0 0 0 0 0 1622 1027 736 814 654 546 435 246 219 146 23 28 2 0 0 0 0 0 7 3 15 130 240 360
0 0 0 0 0 0 0 0 0 0 0 0 0 0 0 0 0 0 49 1 1 0 0 1 749 1629 1846 1533 1513 1852 921 903 693 476 288 124 10 75 11 0 4 0 0 0 20 16 138 328 541
0 0 0 0 0 0 0 0 0 0 0 0 0 0 0 0 0 0 0 7 0 0 0 99 1817 2359 2227 1942 1640 1570 1718 1572 1149 863 655 421 176 100 106 85 14 41 0 1 43 39 62 230 726
0 0 0 0 0 0 0 0 0 0 0 0 0 0 0 0 0 0 0 0 20 1 10 187 975 2472 2350 2391 2282 1805 1541 1274 1251 1110 1001 1070 451 263 354 115 159 0 60 85 28 217 135 295 465
0 0 0 0 0 0 0 0 0 0 0 0 0 0 0 0 0 0 0 0 0 0 0 161 209 1914 2459 2727 2281 2110 1883 1790 1602 1293 1299 1309 915 675 244 522 253 160 193 161 133 142 187 182 537
0 0 0 0 0 0 0 0 0 0 0 0 0 0 0 0 0 0 0 0 19 69 327 278 292 932 1607 1829 1911 1552 1431 1058 1098 1098 1031 1076 1569 1051 751 569 596 698 303 279 192 205 149 364 257
0 0 0 0 0 0 0 0 0 0 0 0 0 0 0 0 0 0 0 0 0 46 515 325 157 261 1319 1178 871 352 283 250 311 509 887 1100 1604 1511 1065 933 1069 597 732 366 382 443 342 247 73
0 0 0 0 0 0 0 0 0 0 0 0 0 0 0 0 0 0 0 0 0 103 460 289 151 124 189 332 267 282 189 190 740 841 701 1421 1654 1416 1395 983 866 1011 744 742 534 428 209 181 92
0 0 0 0 0 0 0 0 0 0 0 0 0 0 0 0 0 0 0 0 12 395 293 223 257 340 409 341 220 411 229 202 27 596 1202 1722 1646 1443 1317 1187 998 1189 977 705 651 346 196 199 201
0 0 0 0 0 0 0 0 0 0 0 0 0 0 0 0 0 0 0 0 0 115 107 307 413 163 61 305 244 251 242 358 505 1245 1422 1483 1374 1382 1289 1167 1084 1239 1213 877 658 393 272 296 494
1 1 0 0 0 0 0 0 0 0 0 0 0 0 0 0 0 0 0 0 0 0 0 0 202 119 7 46 634 577 639 772 1022 1852 1368 1242 1115 1154 1305 1357 1206 1285 1060 946 477 501 427 686 531
0 4 19 0 0 0 0 2 0 0 0 0 0 0 0 0 0 0 0 0 0 0 0 0 0 19 258 120 677 525 532 629 1135 1734 1135 931 893 799 934 965 1034 1161 1106 929 601 680 677 477 372
0 27 1 1 4 2 0 0 0 0 0 0 0 0 0 0 0 0 0 0 0 0 0 0 0 0 171 432 1356 1244 885 1983 1540 1411 933 768 735 647 870 946 960 1056 1133 994 793 616 463 352 381
0 0 36 1 2 1 0 0 0 2 0 0 0 0 0 0 0 0 0 0 0 0 0 0 0 0 795 692 1067 1397 808 1842 1358 894 750 675 657 757 1071 1025 1013 1187 1080 844 612 524 507 401 261
14 41 29 26 4 7 0 0 18 20 0 0 0 0 0 0 0 0 0 0 0 0 0 0 9 489 714 675 787 1253 1556 1798 1065 887 813 793 681 1079 1147 1120 1339 1079 812 707 513 402 251 282 180
2 23 12 2 1 0 0 0 173 0 0 0 0 0 0 0 0 0 1 345 573 160 194 5 382 681 997 1365 1638 1911 2087 1869 1384 1239 1152 1137 1278 1311 1283 1223 964 786 730 505 212 198 252 130 38
9 74 2 26 2 0 0 0 14 0 0 0 0 0 0 0 0 0 0 840 1789 1403 1322 986 1477 1593 1699 1865 1985 2153 2094 2127 1887 1662 1678 1542 1286 1239 1080 898 619 575 395 343 328 300 288 78 6
CIN
0 0 0 0 0 0 0 0 0 0 0 0 0 0 -90 -171 -99 -76 -45 -487 -695 -835 -772 -699 -596 -458 -335 -251 -191 -161 -146 -117 -95 -71 -63 -80 -89 -143 -192 -192 -233 -54 0 0 0 0 0 0 0
0 0 0 0 0 0 0 0 0 0 0 0 0 0 -56 -196 0 -291 -363 -553 -719 -876 -835 -838 -611 -503 -370 -281 -233 -199 -171 -133 -109 -84 -83 -112 -111 -142 -219 -289 -360 0 0 0 0 0 0 0 0
0 0 0 0 0 0 0 0 0 0 0 -36 0 0 -67 -149 0 -44 -389 -646 -799 -844 -918 -851 -620 -528 -396 -305 -261 -241 -204 -157 -133 -114 -113 -132 -141 -166 -218 -305 -358 -88 0 0 0 0 0 0 0
0 0 0 0 0 0 0 0 0 0 0 -49 -47 -83 -96 -153 0 -276 -470 -682 -769 -914 -880 -671 -632 -579 -448 -339 -307 -266 -235 -191 -163 -145 -146 -168 -188 -195 -252 -327 -347 -414 0 0 0 0 0 0 0
0 0 0 0 0 0 0 0 0 0 0 -28 -32 -20 -74 -115 -90 -290 -400 -518 -749 -945 -809 -706 -625 -588 -529 -411 -353 -311 -280 -242 -205 -170 -177 -194 -198 -238 -277 -318 -403 -419 -427 -106 -482 -372 -351 -334 -333
0 0 0 0 0 0 0 0 0 0 -8 0 0 0 -48 -198 -259 -304 -350 -488 -642 -842 -787 -734 -555 -544 -575 -504 -430 -389 -336 -301 -267 -239 -223 -238 -247 -272 -302 -327 -365 -356 -353 -343 -330 -320 -308 -273 -246
0 0 0 0 0 0 0 0 0 0 0 0 0 0 -70 -199 -84 -308 -357 -407 -507 -651 -809 -794 -662 -543 -501 -520 -513 -486 -423 -398 -367 -343 -323 -308 -309 -324 -332 -350 -370 -348 -336 -305 -292 -287 -261 -232 -205
0 0 0 0 0 0 0 0 0 0 0 0 0 0 -28 -172 -29 -260 -321 -354 -419 -604 -707 -808 -766 -627 -599 -545 -476 -490 -485 -476 -460 -420 -390 -377 -337 -356 -366 -413 -401 -362 -321 -287 -273 -245 -225 -192 -172
0 0 0 0 0 0 0 0 0 0 0 0 0 0 -44 -111 -101 0 -287 -268 -329 -484 -628 -743 -795 -750 -726 -656 -533 -454 -478 -453 -453 -429 -416 -445 -529 -517 -555 -506 -466 -368 -317 -266 -239 -217 -189 -152 -140
0 0 0 0 0 0 0 0 0 0 0 0 0 -17 -49 -93 -84 0 0 0 -239 -376 -518 -676 -754 -796 -881 -693 -663 -612 -621 -590 -583 -607 -589 -650 -542 -309 -664 -609 -439 -377 -307 -249 -217 -193 -157 -163 -257
0 0 0 0 0 0 0 0 0 0 0 0 0 0 -45 -83 -100 0 0 0 -65 -272 -339 -514 -671 -750 -820 -711 -818 -700 -694 -705 -710 -772 -792 -740 -348 -83 -690 0 -633 -616 -411 -466 -310 -254 -221 -268 -313
0 0 0 0 0 0 0 0 0 0 0 0 0 0 0 0 -100 -69 -69 0 -331 -186 -222 -416 -612 -717 -775 -710 -734 -742 -793 -799 -803 -786 -7 -804 0 0 0 0 0 0 -607 -551 -534 -423 -363 -366 -405
0 0 0 0 0 0 0 0 0 0 0 0 0 0 0 0 -82 -174 -599 -518 0 -156 -109 -213 -429 -558 -594 -571 -648 -704 -742 -795 -820 -804 -820 -845 -177 0 0 0 0 0 -446 -626 -675 -590 -474 -438 -401
0 0 0 0 0 0 0 0 0 0 0 0 0 0 0 0 0 -149 -471 0 -16 0 0 0 -36 -421 -449 -428 -525 -539 -570 -632 -725 -702 -761 -850 -854 -159 0 0 0 0 0 -688 -544 -640 -506 -426 -354
0 0 0 0 0 0 0 0 0 0 0 0 0 0 0 0 0 0 -237 -72 -350 0 0 -17 -261 -278 -267 -255 -341 -369 -502 -501 -541 -588 -692 -780 -847 -835 -851 0 -346 0 0 0 -639 -642 -475 -364 -267
0 0 0 0 0 0 0 0 0 0 0 0 0 0 0 0 0 0 0 -232 -12 0 0 -201 -123 -201 -258 -289 -284 -308 -315 -316 -408 -431 -527 -658 -755 -766 -728 -677 -415 -623 -8 -277 -596 -539 -492 -377 -224
0 0 0 0 0 0 0 0 0 0 0 0 0 0 0 0 0 0 0 0 -203 -57 -144 -187 -233 -197 -242 -295 -303 -347 -353 -373 -372 -317 -341 -373 -597 -687 -561 -630 -601 0 -547 -503 -488 -406 -398 -327 -237
0 0 0 0 0 0 0 0 0 0 0 0 0 0 0 0 0 0 0 0 0 -36 0 -307 -386 -281 -291 -314 -357 -347 -359 -366 -362 -337 -322 -302 -389 -497 -559 -446 -511 -511 -439 -458 -417 -374 -381 -333 -173
0 0 0 0 0 0 0 0 0 0 0 0 0 0 0 0 0 0 0 0 -222 -298 -348 -346 -336 -352 -368 -375 -351 -376 -342 -433 -411 -369 -332 -306 -296 -396 -434 -400 -386 -349 -395 -394 -374 -345 -341 -242 -259
0 0 0 0 0 0 0 0 0 0 0 0 0 0 0 0 0 0 0 0 0 -247 -251 -381 -376 -353 -345 -372 -379 -436 -459 -526 -426 -424 -368 -359 -313 -322 -374 -344 -306 -351 -299 -354 -316 -264 -288 -283 -332
0 0 0 0 0 0 0 0 0 0 0 0 0 0 0 0 0 0 0 0 0 -371 -359 -368 -359 -361 -356 -410 -529 -517 -527 -507 -367 -404 -324 -312 -307 -338 -304 -353 -316 -283 -288 -257 -281 -272 -288 -257 -330
0 0 0 0 0 0 0 0 0 0 0 0 0 0 0 0 0 0 0 0 -52 -185 -391 -347 -371 -359 -352 -379 -457 -400 -375 -360 -449 -367 -224 -259 -290 -291 -331 -306 -312 -229 -232 -256 -255 -298 -315 -263 -202
0 0 0 0 0 -2 0 0 0 0 0 0 0 0 0 0 0 0 0 0 0 -190 -210 -263 -314 -343 -335 -365 -406 -513 -470 -412 -430 -221 -166 -204 -259 -278 -285 -272 -259 -195 -163 -193 -230 -270 -240 -222 -106
-48 -21 0 -4 0 0 0 0 0 0 0 0 0 0 0 0 0 0 0 0 0 0 0 0 -177 -296 -181 -450 -415 -365 -359 -283 -230 -137 -201 -238 -284 -264 -244 -203 -203 -158 -166 -155 -263 -228 -201 -91 -69
0 -48 -26 0 0 0 0 -6 0 0 0 0 0 0 0 0 0 0 0 0 0 0 0 0 0 -77 -359 -396 -361 -396 -360 -279 -140 -133 -256 -286 -311 -328 -289 -249 -184 -148 -124 -112 -191 -142 -108 -109 -89
0 -27 -15 -3 -11 -15 -4 -2 0 0 0 0 0 0 0 0 0 0 0 0 0 0 0 0 0 0 -459 -380 -302 -321 -273 -139 -128 -201 -286 -330 -332 -349 -286 -238 -180 -129 -84 -67 -98 -111 -104 -104 -76
0 -14 -53 -3 -13 -3 0 0 0 -83 -20 0 0 0 0 0 0 0 0 0 0 0 0 0 0 0 -350 -342 -319 -233 -238 -125 -187 -288 -319 -321 -325 -288 -212 -196 -161 -80 -43 -74 -87 -61 -61 -72 -79
-43 -44 -49 -29 -2 -3 0 0 -14 -164 0 0 0 0 0 0 0 0 0 0 0 0 0 0 -54 -396 -391 -378 -296 -192 -124 -121 -235 -265 -263 -271 -281 -181 -165 -138 -48 -59 -62 -67 -66 -70 -83 -82 -86
-59 -16 -80 -8 -26 0 0 0 -37 0 0 0 0 0 0 0 0 0 -38 -121 -153 -194 -286 -352 -426 -344 -256 -186 -140 -105 -58 -78 -156 -164 -179 -170 -125 -97 -84 -54 -62 -49 -45 -70 -93 -92 -83 -84 -108
-26 -20 -35 -30 -1 -8 0 0 -163 0 0 0 0 0 0 0 0 0 0 -80 -95 -134 -162 -182 -172 -153 -127 -84 -60 -44 -51 -58 -65 -88 -73 -71 -84 -67 -69 -54 -54 -40 -50 -51 -50 -51 -45 -90 -39
Wind_Speed
5 6 3 3 4 2 6 10 14 16 13 12 6 10 7 7 7 6 9 14 18 18 17 19 23 22 21 19 17 16 15 14 14 13 12 12 11 12 13 10 9 9 9 7 7 6 7 6 6
5 4 2 3 4 3 8 17 20 22 22 9 8 6 8 3 8 14 14 15 20 18 15 16 23 23 22 20 18 17 17 16 15 14 13 13 11 10 11 10 9 9 8 8 7 6 5 5 5
5 5 1 4 4 9 8 9 12 18 23 5 4 5 4 12 8 5 17 19 20 15 13 16 22 22 22 20 18 17 17 16 16 15 14 13 12 11 10 10 9 9 9 8 7 6 5 6 5
3 2 4 0 11 13 23 18 17 18 18 4 6 5 6 8 7 10 18 20 19 16 13 20 22 22 22 21 19 17 17 17 16 16 15 14 13 12 11 11 10 9 10 9 9 8 7 6 5
1 3 3 5 11 15 19 18 15 16 15 2 4 1 10 6 19 23 20 18 20 15 12 16 23 22 22 21 21 19 18 17 16 16 16 16 14 13 12 12 11 11 11 11 10 10 9 8 7
2 2 2 7 15 18 19 13 12 13 5 9 7 3 5 15 24 18 17 15 16 18 15 15 20 21 21 20 20 19 18 18 18 17 17 16 15 14 13 13 12 12 12 11 11 11 9 8 7
6 3 7 9 15 19 19 12 11 7 6 6 3 2 3 8 19 18 18 18 16 15 15 14 14 16 19 19 19 18 18 18 18 18 17 17 16 16 15 14 14 13 12 12 12 11 10 9 8
4 5 14 12 13 22 20 17 10 7 12 6 3 5 1 11 18 19 16 18 17 14 14 13 12 11 11 11 17 17 17 17 17 17 17 17 17 16 16 15 15 14 14 13 12 11 10 10 8
3 7 14 19 18 22 19 15 17 12 7 5 5 3 4 15 12 8 9 13 15 14 15 14 13 11 10 9 11 14 16 16 15 15 16 13 7 8 12 12 15 15 14 13 13 12 10 10 9
6 8 18 17 15 17 17 16 19 15 10 9 7 6 5 10 17 9 10 12 18 17 16 17 16 15 12 10 9 8 8 7 7 7 7 6 6 6 10 12 16 16 15 14 14 12 11 10 4
7 19 13 16 18 20 21 19 19 17 14 9 7 9 11 9 8 18 17 12 15 18 14 16 17 16 16 11 8 6 6 5 6 7 7 7 6 6 7 4 7 5 14 6 9 7 5 5 5
17 19 18 19 20 24 26 21 22 16 15 11 7 6 3 16 10 9 8 7 13 10 14 12 14 14 12 8 9 8 8 7 6 9 11 8 6 7 5 6 6 6 6 6 5 4 6 6 7
19 16 17 19 21 24 25 25 21 22 17 17 13 9 9 14 12 9 14 8 5 18 7 5 14 16 15 11 8 9 10 9 9 9 11 10 9 8 8 5 6 7 7 7 7 6 8 8 10
8 14 16 15 18 18 20 23 22 23 16 18 14 10 8 9 11 10 18 3 6 5 10 17 9 10 13 12 11 10 9 10 9 9 11 15 10 9 8 9 7 8 9 8 8 8 9 8 9
11 12 16 14 15 18 11 17 23 17 15 19 16 11 8 8 11 11 11 19 12 7 9 20 7 6 12 15 10 8 9 8 10 10 12 15 13 11 12 9 9 7 9 8 9 8 5 7 9
8 9 7 2 9 16 8 24 23 10 13 15 14 20 18 10 9 11 7 10 17 16 20 28 15 13 10 8 7 6 6 6 7 9 9 14 15 14 12 9 10 6 6 9 7 8 8 8 8
6 8 10 15 11 10 10 23 25 15 14 14 15 17 17 14 9 10 10 8 9 15 12 13 17 19 17 10 7 6 6 5 5 5 7 13 14 15 12 10 7 10 6 7 8 5 8 4 4
8 9 11 13 5 10 14 19 18 20 20 18 16 13 15 19 19 14 13 10 11 11 13 12 9 15 13 9 6 3 4 5 5 7 6 10 12 15 14 8 8 9 9 5 4 5 4 4 4
12 15 14 15 12 13 11 18 19 13 14 18 20 20 17 19 22 17 13 8 9 8 9 11 12 10 10 4 5 4 5 4 3 5 8 8 11 14 13 9 8 7 9 7 6 4 6 2 3
10 14 15 13 9 12 13 19 19 15 16 16 13 19 21 13 13 16 19 18 10 10 11 12 13 11 8 7 4 4 4 4 4 6 9 8 11 13 13 11 7 8 5 6 6 5 3 2 4
12 14 16 19 13 13 12 16 21 20 14 15 17 9 7 11 14 14 10 8 8 9 13 14 14 14 11 10 4 2 2 1 1 3 7 6 10 12 12 10 8 6 5 5 5 6 7 4 2
15 11 15 17 13 11 5 17 14 19 21 13 14 13 10 10 9 17 14 8 6 7 7 10 10 10 9 9 6 8 8 7 6 4 4 5 9 10 11 10 8 6 5 6 5 5 5 5 4
15 16 19 15 17 14 12 8 12 7 19 15 12 18 16 12 10 11 12 10 9 9 7 7 9 11 11 11 11 9 6 5 4 3 7 5 6 8 9 8 7 6 4 5 7 6 6 4 4
13 15 16 12 9 13 15 10 20 11 18 19 14 14 17 19 14 12 11 11 10 9 10 10 10 13 14 14 12 11 10 8 5 4 5 4 4 4 8 9 6 6 5 5 5 6 7 5 4
7 5 5 5 4 15 13 13 18 12 15 13 12 15 17 17 11 13 15 11 14 10 10 9 11 15 15 14 13 12 10 9 8 8 7 8 4 3 5 6 5 4 5 4 6 6 6 6 3
9 5 5 5 4 8 19 8 11 10 13 20 22 17 16 13 13 12 13 16 16 16 13 10 10 10 12 12 12 9 10 5 5 8 8 6 5 5 6 7 6 6 5 5 6 4 4 5 5
4 3 9 5 10 4 6 12 13 11 16 21 23 24 22 24 25 18 18 11 14 15 16 15 15 11 12 14 10 8 7 7 9 10 8 6 5 6 7 8 7 6 7 7 7 4 5 5 5
7 2 2 5 4 4 5 12 5 14 17 18 20 22 25 24 26 19 12 9 9 9 10 12 13 15 13 11 10 8 8 9 11 11 9 9 7 7 7 7 7 7 6 7 7 5 4 6 4
13 2 5 4 2 3 4 3 3 8 11 16 18 20 23 21 21 18 10 6 7 7 8 9 9 12 10 10 8 9 8 12 12 10 9 9 7 7 9 8 7 7 8 8 6 5 6 6 6
13 6 3 2 3 5 4 9 6 4 7 10 18 17 23 20 18 23 17 16 4 8 8 11 10 13 12 10 8 8 8 12 12 10 11 9 8 8 9 9 8 8 7 7 7 6 6 7 6
Wind_Direction
300 273 288 307 50 111 251 252 242 271 272 251 218 97 151 129 156 189 148 122 138 147 156 155 145 142 139 142 144 143 139 141 139 136 135 132 136 139 133 134 136 133 136 134 133 132 126 120 114
309 262 273 273 122 275 269 242 248 245 251 262 74 37 75 55 118 120 107 145 146 150 154 156 147 144 143 145 148 148 145 146 141 140 142 143 145 148 145 150 150 147 148 147 147 142 134 127 129
283 245 87 168 207 225 251 258 286 299 307 143 86 73 76 158 102 115 120 138 136 150 158 156 149 146 145 146 150 151 149 148 145 147 150 155 156 159 159 165 163 167 164 161 158 153 153 152 154
300 311 303 118 259 260 239 269 280 290 301 91 119 124 63 131 109 142 132 141 135 152 166 156 151 150 150 152 152 155 153 154 153 153 158 164 169 170 170 174 174 180 177 174 172 168 179 184 173
224 281 239 251 252 259 268 271 276 289 288 15 96 205 120 129 124 133 142 145 142 155 161 156 153 156 156 156 156 160 160 159 159 160 167 173 176 176 177 182 185 190 184 187 183 181 188 190 193
281 191 267 243 259 265 272 282 293 280 251 278 357 193 181 144 134 150 144 144 147 152 153 157 156 162 159 160 162 162 165 164 164 168 175 176 178 181 182 188 193 195 192 194 192 192 192 200 206
232 252 240 253 266 279 280 286 285 298 307 286 265 272 128 147 144 146 148 144 148 146 145 157 156 165 160 163 167 168 172 170 171 174 177 179 182 184 186 191 195 198 198 200 200 199 196 204 212
253 241 259 260 269 279 284 297 290 310 300 290 335 291 181 173 161 149 153 149 146 141 146 151 154 160 156 164 170 174 178 178 179 180 184 183 187 187 190 193 198 202 202 203 205 207 202 212 215
310 239 237 238 241 260 283 293 300 299 310 302 298 281 171 137 150 130 153 158 148 152 154 151 156 160 157 159 174 177 185 184 187 189 189 186 185 190 195 196 203 204 205 205 209 211 211 220 223
205 231 236 247 255 262 274 285 288 310 306 302 328 333 83 136 151 146 188 178 169 163 164 161 158 166 161 171 171 171 182 186 186 188 192 182 179 186 194 201 205 208 206 206 212 213 214 225 214
233 241 253 259 267 278 282 286 308 310 312 273 276 6 334 144 147 173 192 196 179 172 163 165 166 163 167 176 166 175 182 184 189 185 181 181 191 198 201 193 205 200 209 207 210 211 213 208 208
246 245 238 254 261 275 276 293 289 294 287 286 299 326 3 319 180 194 215 187 78 38 143 158 162 161 171 169 174 173 177 184 188 196 188 183 196 197 199 196 193 189 193 192 192 195 204 212 217
258 269 265 251 242 247 267 267 271 279 285 293 297 319 320 311 257 95 83 65 54 105 58 273 181 169 170 172 176 178 186 187 194 190 194 192 195 197 199 199 187 190 184 188 198 199 205 213 221
293 290 280 273 270 262 252 259 263 260 269 271 278 285 288 289 277 129 115 101 96 56 154 211 219 169 165 177 176 184 187 189 187 193 195 199 195 197 196 205 199 187 189 186 197 204 204 211 214
320 314 301 276 274 274 299 280 252 263 255 264 277 266 259 260 278 262 154 156 161 149 98 303 217 184 187 186 181 175 184 186 189 195 193 197 197 193 198 199 205 189 189 188 197 209 199 212 216
295 283 288 313 280 258 259 271 266 281 259 262 264 267 266 257 270 271 227 177 178 179 170 206 197 185 189 188 194 189 189 182 185 195 192 197 197 197 196 197 202 187 172 194 190 202 213 216 209
244 258 258 277 258 268 233 257 263 264 265 255 254 250 264 256 254 273 273 219 180 173 179 177 175 184 186 187 196 194 187 205 195 193 192 200 198 195 195 200 190 189 183 189 198 195 209 195 189
255 267 269 264 275 250 264 261 269 253 244 245 250 250 249 258 251 256 255 243 225 195 181 173 164 169 171 171 167 184 197 217 204 216 215 184 199 194 197 192 180 181 200 193 174 173 189 166 172
276 284 290 300 322 324 301 291 291 295 302 265 241 240 247 243 250 250 252 259 263 229 177 167 158 167 161 150 162 183 204 201 211 219 223 189 193 189 191 193 180 170 192 191 183 166 182 176 143
317 308 297 287 292 296 300 292 293 294 290 291 285 245 232 224 229 245 257 257 233 228 198 170 170 166 166 160 171 164 173 202 190 209 222 199 182 184 183 182 172 185 156 183 178 161 120 136 165
305 293 297 289 289 269 285 283 293 289 275 285 287 260 260 250 243 231 234 239 261 225 193 176 180 180 179 178 148 134 53 344 220 228 222 200 166 164 172 178 182 171 171 175 177 160 153 154 210
291 299 307 313 304 272 257 278 270 293 293 292 286 282 262 250 256 237 232 227 208 236 196 170 176 178 183 179 174 180 205 209 231 186 204 162 161 159 156 165 163 163 177 171 163 159 147 124 166
314 325 310 305 298 307 274 273 279 274 285 282 277 284 292 262 234 228 220 217 212 175 204 203 183 190 194 192 196 191 190 197 193 172 162 143 147 151 147 155 166 166 167 177 157 152 151 155 145
323 319 289 296 271 269 271 252 273 264 268 281 282 283 280 276 260 220 221 224 222 197 187 191 190 202 202 200 192 182 179 189 186 146 149 137 128 138 152 160 153 153 162 161 164 160 162 157 161
338 11 334 304 243 257 260 251 252 255 258 276 296 291 281 271 289 271 252 230 229 221 205 198 191 203 202 197 192 187 176 182 183 161 151 144 138 132 149 124 138 148 157 172 156 143 151 160 162
260 167 173 287 292 302 307 273 265 302 306 1 337 319 283 289 278 272 268 232 218 218 216 204 199 197 187 191 186 167 172 157 163 157 155 146 154 147 154 137 156 163 169 148 135 138 149 161 179
293 238 218 252 258 253 227 278 275 20 8 0 348 334 330 322 305 271 260 232 213 217 221 217 224 217 182 181 160 157 160 154 148 137 141 146 140 160 158 163 158 153 152 145 150 153 162 165 179
193 208 120 198 263 297 297 303 317 2 350 344 342 337 324 316 319 271 256 252 241 207 192 198 186 173 166 153 153 155 160 150 146 143 150 156 165 164 149 145 146 147 148 133 139 157 186 167 177
308 10 61 266 232 229 295 274 34 10 345 337 324 328 318 309 315 314 295 235 243 211 178 164 147 135 139 144 150 150 157 155 145 150 150 156 148 144 142 141 144 147 145 151 149 171 171 163 168
293 46 94 127 315 244 234 270 139 114 11 341 316 321 309 303 325 318 340 300 332 153 138 140 137 135 139 145 139 146 136 142 140 143 145 143 140 133 136 141 153 154 153 143 158 167 160 172 182